Tracking 30402 objects as of 12-May-2025
HD Live streaming from Space Station
objects crossing your sky now

CZ-4 DEB

Track CZ-4 DEB now!
10-day predictions


NORAD ID: 35567
Int'l Code: 2007-042G
Perigee: 829.1 km
Apogee: 848.5 km
Inclination: 98.8 °
Period: 101.5 minutes
Semi major axis: 7209 km
RCS: 0.0062 m2 (small)
Launch date: September 19, 2007
Source: People's Republic of China (PRC)
Launch site: Taiyaun Space Center, China (TSC)

Note: This is SATELLITE DEBRIS
Your satellite tracking list
Your tracking list is empty




NASA's NSSDC Master Catalog

Two Line Element Set (TLE):
1 35567U 07042G   25131.11852174  .00000851  00000-0  43588-3 0  9995
2 35567  98.8328  86.0559 0013422 261.5507  98.4147 14.18130606605786
Source of the keplerian elements: AFSPC